Regional Weather Roundup
Issued by NWS

Home | Current Version | Previous Version | Graphics & Text | Print | Product List | Glossary On
Versions: 1 2 3 4 5 6 7 8 9 10 11 12 13 14 15 16 17 18 19 20 21 22 23 24 25 26 27 28 29 30 31 32 33 34 35 36 37 38 39 40 41 42 43 44 45 46 47 48 49 50
000
ASUS45 KCYS 050610
RWRWY

WYOMING REGIONAL WEATHER ROUNDUP
NATIONAL WEATHER SERVICE CHEYENNE WY
1100 PM MST WED MAR 04 2015

NOTE:  "FAIR" INDICATES FEW OR NO CLOUDS BELOW 12,000 FEET
WITH NO SIGNIFICANT WEATHER AND/OR OBSTRUCTIONS TO VISIBILITY.

WYZ001-050700-
YELLOWSTONE NATIONAL PARK

CITY           SKY/WX    TMP DP  RH WIND       PRES   REMARKS
LK YELLOWSTONE   N/A     -4 -10  75 CALM      30.19R
6HR MIN TEMP:  -4; 6HR MAX TEMP:  20;

W YELLOWSTONE  NOT AVBL

$$
WYZ002>013-054>058-071-098>099-050700-
NORTHERN WYOMING

CITY           SKY/WX    TMP DP  RH WIND       PRES   REMARKS
JACKSON        FAIR       1  -2  85 N17       30.23R WCI -19
CODY           FAIR      28   7  40 W18G31    30.07R WCI  16
GREYBULL       FAIR      12   3  67 SE3       30.19S
6HR MIN TEMP:  12; 6HR MAX TEMP:  24;

WORLAND        FAIR      10   1  67 SE7       30.17S WCI  -1
6HR MIN TEMP:  10; 6HR MAX TEMP:  23;

SHERIDAN       FAIR       0  -8  69 CALM      30.09F
6HR MIN TEMP:   0; 6HR MAX TEMP:  16;

BUFFALO          N/A     14  -4  44 W3        30.07S
6HR MIN TEMP:  10; 6HR MAX TEMP:  18;

GILLETTE       FAIR      15  -2  46 SW14      30.11S WCI   0
6HR MIN TEMP:  -1; 6HR MAX TEMP:  17;

HULETT         FAIR      12   1  62 S10       30.13S WCI  -1
NEWCASTLE      FAIR       5  -2  72 CALM      30.19S

$$
WYZ014>020-022>026-101>103-050700-
CENTRAL WYOMING

CITY           SKY/WX    TMP DP  RH WIND       PRES   REMARKS
BIG PINEY      FAIR      14   0  53 CALM      30.20R
6HR MIN TEMP:  13; 6HR MAX TEMP:  27;

PINEDALE       FAIR       3  -6  66 NW8       30.19S WCI -10
DUBOIS         FAIR      18  -2  41 NW23      30.10F WCI   0
LANDER         FAIR       3  -2  79 VRB5      30.12S WCI  -6
6HR MIN TEMP:   1; 6HR MAX TEMP:  14;

RIVERTON       FAIR       1  -5  75 SW5       30.14S WCI  -9
6HR MIN TEMP:   0; 6HR MAX TEMP:  11;

CASPER         FAIR      14   1  56 SW13      30.13S WCI   0
6HR MIN TEMP:   4; 6HR MAX TEMP:  14;

DOUGLAS        FAIR      -5 -10  79 SE3       30.16S
6HR MIN TEMP:  -6; 6HR MAX TEMP:  17;


$$
WYZ021-027>030-104>119-050700-
SOUTHERN WYOMING

CITY           SKY/WX    TMP DP  RH WIND       PRES   REMARKS
EVANSTON       FAIR      12   6  77 SW13      30.26R WCI  -3
6HR MIN TEMP:  11; 6HR MAX TEMP:  25;

FORT BRIDGER   FAIR      18  10  70 SW10      30.27R WCI   6
ROCK SPRINGS   FAIR      15   8  73 SW16      30.20R WCI  -1
6HR MIN TEMP:  15; 6HR MAX TEMP:  21;

DIXON          FAIR       8   0  70 NE5       30.28R WCI   0
RAWLINS        FAIR      13   3  64 SW8       30.15R WCI   2
6HR MIN TEMP:   5; 6HR MAX TEMP:  15;

SARATOGA       FAIR       5   0  78 S13       30.18R WCI -12
LARAMIE        FAIR       2  -6  69 S5        30.09R WCI  -8
6HR MIN TEMP:  -2; 6HR MAX TEMP:  11;

CHEYENNE       FAIR       8  -3  61 W10       30.13S WCI  -6
6HR MIN TEMP:   4; 6HR MAX TEMP:  18;

TORRINGTON     FAIR      10   3  73 SW6       30.21S WCI   0
6HR MIN TEMP:  10; 6HR MAX TEMP:  23;

PINE BLUFFS    FAIR       9   3  78 S5        30.20F WCI   0

$$



USA.gov is the U.S. government's official web portal to all federal, state and local government web resources and services.